AC8UJ Weather Reports


time (UTC)temp
C
wind
direction
speed
KPH
gust
KPH
rain 1hr
cm
rain 24hr
cm
rain mn
cm
humidity
%
barometer
mb
20260505101515 14 0.0 0.0 0.30 0.33 0.33 89
20260505100518 14 0.0 0.0 0.28 0.28 0.28 88
20260505095516 14 293 0.0 1.6 0.18 0.18 0.18 86
20260505094516 15 283 0.0 3.2 0.10 0.10 0.10 84
20260505093518 15 268 1.6 4.8 0.08 0.08 0.08 80
20260505092518 16 320 0.0 3.2 0.05 0.05 0.05 73
20260505091515 17 232 0.0 1.6 0.03 0.03 0.03 65
20260505090515 17 225 0.0 1.6 0.00 0.00 0.00 62
20260505085537 17 216 0.0 3.2 0.00 0.00 0.00 62
20260505084557 17 214 0.0 1.6 0.00 0.00 0.00 61
20260505083517 18 200 0.0 3.2 0.00 0.00 0.00 61
20260505082518 18 216 0.0 1.6 0.00 0.00 0.00 61
20260505081601 18 225 0.0 1.6 0.00 0.00 0.00 60
20260505080515 18 202 0.0 8.0 0.00 0.00 0.00 60
20260505075515 18 224 1.6 3.2 0.00 0.00 0.00 59
20260505074538 18 232 1.6 3.2 0.00 0.00 0.00 59
20260505073516 18 222 1.6 4.8 0.00 0.00 0.00 58
20260505072516 18 227 3.2 6.4 0.00 0.00 0.00 58
20260505071542 18 225 3.2 6.4 0.00 0.00 0.00 57
20260505070518 18 220 3.2 9.7 0.00 0.00 0.00 57
20260505065515 19 212 4.8 17.7 0.00 0.00 0.00 57
20260505064515 19 214 4.8 14.5 0.00 0.00 0.00 57
20260505063537 19 216 3.2 6.4 0.00 0.00 0.00 57
20260505062536 19 223 3.2 11.3 0.00 0.00 0.00 56
20260505061537 19 219 6.4 14.5 0.00 0.00 0.00 57
20260505060519 19 215 3.2 9.7 0.00 0.00 0.00 57
20260505055535 19 221 1.6 6.4 0.00 0.00 0.00 57
20260505054515 19 221 3.2 6.4 0.00 0.00 0.00 56
20260505053515 19 217 3.2 9.7 0.00 0.00 0.00 56
20260505052516 20 216 3.2 9.7 0.00 0.00 0.00 55
20260505051518 20 213 1.6 11.3 0.00 0.00 0.00 55
20260505050516 20 216 3.2 8.0 0.00 0.00 0.00 55
20260505041517 20 213 4.8 16.1 0.00 0.00 0.00 55
20260505040538 20 218 3.2 8.0 0.00 0.00 0.00 55
20260505035517 20 219 1.6 4.8 0.00 0.00 0.00 55
20260505034517 20 213 3.2 8.0 0.00 0.00 0.00 56
20260505033516 20 210 3.2 9.7 0.00 0.00 0.00 56
20260505032515 20 216 3.2 8.0 0.00 0.00 0.00 56
20260505031537 20 218 1.6 4.8 0.00 0.00 0.00 57
20260505030540 20 218 1.6 3.2 0.00 0.00 0.00 57
20260505025516 20 213 1.6 3.2 0.00 0.00 0.00 56
20260505024519 20 208 1.6 11.3 0.00 0.00 0.00 56
20260505023517 20 212 1.6 6.4 0.00 0.00 0.00 56
20260505022515 20 212 1.6 4.8 0.00 0.00 0.00 56
20260505021558 20 217 1.6 8.0 0.00 0.00 0.00 56
20260505020515 21 216 1.6 6.4 0.00 0.00 0.00 56
20260505015517 21 195 0.0 3.2 0.00 0.00 0.00 56
20260505014516 21 198 0.0 3.2 0.00 0.00 0.00 56
20260505013516 21 192 0.0 3.2 0.00 0.00 0.00 56
20260505012517 21 205 0.0 1.6 0.00 0.00 0.00 55
20260505011515 21 203 0.0 3.2 0.00 0.00 0.00 55
20260505010515 21 208 1.6 3.2 0.00 0.00 0.00 54
20260505005535 21 202 1.6 4.8 0.00 0.00 0.00 54
20260505004517 21 212 1.6 3.2 0.00 0.00 0.00 53
20260505003516 22 214 1.6 3.2 0.00 0.00 0.00 52
20260505002517 22 214 1.6 3.2 0.00 0.00 0.00 51
20260505001517 22 212 1.6 3.2 0.00 0.00 0.00 50
20260505000516 22 213 1.6 3.2 0.00 0.00 0.00 49
20260504235516 22 205 3.2 6.4 0.00 0.00 0.00 48
20260504234517 23 212 1.6 6.4 0.00 0.00 0.00 48
20260504233517 23 224 3.2 8.0 0.00 0.00 0.00 47
20260504232516 23 224 3.2 6.4 0.00 0.00 0.00 47
20260504231517 23 216 3.2 8.0 0.00 0.00 0.00 46
20260504230517 23 223 3.2 4.8 0.00 0.00 0.00 43
20260504225515 23 227 3.2 12.9 0.00 0.00 0.00 42
20260504224515 24 225 6.4 14.5 0.00 0.00 0.00 43
20260504223516 24 224 4.8 11.3 0.00 0.00 0.00 43
20260504222538 24 224 4.8 16.1 0.00 0.00 0.00 44
20260504221517 23 228 3.2 6.4 0.00 0.00 0.00 49
20260504220520 23 202 0.0 3.2 0.00 0.00 0.00 50
20260504215535 23 182 0.0 1.6 0.00 0.00 0.00 50
20260504214515 23 0.0 0.0 0.00 0.00 0.00 49
20260504213518 23 209 0.0 1.6 0.00 0.00 0.00 48
20260504212536 23 198 1.6 3.2 0.00 0.00 0.00 48
20260504211516 23 201 0.0 1.6 0.00 0.00 0.00 47
20260504210517 23 226 1.6 4.8 0.00 0.00 0.00 47
20260504205517 24 232 1.6 3.2 0.00 0.00 0.00 45
20260504204515 23 226 1.6 3.2 0.00 0.00 0.00 47
20260504203515 23 220 3.2 8.0 0.00 0.00 0.00 47
20260504202515 23 222 3.2 8.0 0.00 0.00 0.00 49
20260504201518 23 236 1.6 4.8 0.00 0.00 0.00 52
20260504200516 23 238 1.6 3.2 0.00 0.00 0.00 51
20260504195517 23 232 1.6 3.2 0.00 0.00 0.00 52
20260504194517 22 228 3.2 6.4 0.00 0.00 0.00 52
20260504193515 22 228 3.2 6.4 0.00 0.00 0.00 52
20260504192516 22 224 3.2 4.8 0.00 0.00 0.00 53
20260504191515 22 231 1.6 4.8 0.00 0.00 0.00 55
20260504190516 22 227 3.2 6.4 0.00 0.00 0.00 56
20260504185516 21 224 1.6 6.4 0.00 0.00 0.00 59
20260504184537 21 229 0.0 3.2 0.00 0.00 0.00 60
20260504183518 21 228 1.6 6.4 0.00 0.00 0.00 59
20260504182515 21 207 3.2 11.3 0.00 0.00 0.00 60
20260504181515 20 216 3.2 6.4 0.00 0.00 0.00 59
20260504180515 20 231 1.6 4.8 0.00 0.00 0.00 59
20260504175537 20 209 4.8 12.9 0.00 0.00 0.00 57
20260504174517 21 210 6.4 14.5 0.00 0.00 0.00 56
20260504173517 21 211 3.2 9.7 0.00 0.00 0.00 57
20260504172517 21 214 4.8 17.7 0.00 0.00 0.00 57
20260504171538 20 212 3.2 8.0 0.00 0.00 0.00 59
20260504170515 20 212 4.8 20.9 0.00 0.00 0.00 58
20260504150516 17 234 0.0 3.2 0.00 0.00 0.00 63
20260504140518 16 209 1.6 3.2 0.00 0.00 0.00 64
20260504130536 13 202 1.6 6.4 0.00 0.00 0.00 69
20260504110517 12 216 3.2 6.4 0.00 0.00 0.00 65